CZ-3B R/B (43921 NORAD) Tracking and Keplerian Element Data

This shows tracking and keplerian element data for the satellite.

Feedback or suggestion? Click here.




ElementValue
Catalog43921
NameCZ-3B R/B
Epoch Orbit13
Epoch Day15.53647859
Epoch Year2019
RAAN3.1599
Inclination27.1026
Eccentricity0.7238129
Argument of Perigee181.6622
Mean Anonmoly173.2785
Mean Motion2.39171497
Decay Rate0.00042197
L11 43921U 19001B 19015.53647859 .00042197 -16563-6 28660-3 0 9999
L22 43921 27.1026 3.1599 7238129 181.6622 173.2785 2.39171497 134

Live tracking and technical data element details for CZ-3B R/B (NORAD 43921). CZ-3B R/B can be tracked NOW for your location showing map with azimuth and elevation plus other details from your city location.

Track the satellite on the map from your city or location and see movement details for azimuth, elevation, latitude, longitude, range, height, and movement on the map or in text.







IsCatalogInMostPopularTable: catalog: 43921, numindb: 1
Update: records affected: 1



GetName: 43921 CZ-3B R/B

Hit Count: updated at: Thu, 17 Jan 2019 15:38:40 GMT